Regional Weather Roundup
Issued by NWS

Home | Current Version | Previous Version | Text Only | Print | Product List | Glossary Off
Versions: 1 2 3 4 5 6 7 8 9 10 11 12 13 14 15 16 17 18 19 20 21 22 23 24 25 26 27 28 29 30 31 32 33 34 35 36 37 38 39 40 41 42 43 44 45 46 47 48 49 50

000
ASUS43 KIND 221259
RWRIN

WEATHER ROUNDUP FOR INDIANA
NATIONAL WEATHER SERVICE INDIANAPOLIS IN
900 AM EDT TUE APR 22 2014

NOTE: "FAIR" INDICATES FEW OR NO CLOUDS BELOW 12,000 FEET WITH NO
SIGNIFICANT WEATHER AND/OR OBSTRUCTIONS TO VISIBILITY.

* - STATION DOES NOT REPORT WEATHER SUCH AS PRECIPITATION OR FOG.

+ - STATION NOT QUALITY CONTROLLED BY THE NATIONAL WEATHER SERVICE.
    USE DATA WITH CAUTION...ESPECIALLY DEWPOINT AND RELATIVE
    HUMIDITY OBSERVATIONS.

INZ001>003-010>013-019-020-221400-
NORTHWEST INDIANA

CITY           SKY/WX    TMP DP  RH WIND       PRES   REMARKS
GARY /AIRPORT/ SUNNY     45  36  70 N12G23    29.96R
RENSSELAER +   SUNNY     45  36  70 N14G21    29.94S
VALPARAISO     SUNNY     43  32  65 N12G22    29.94R

$$

LMZ046-743>745-221400-
SOUTHERN LAKE MICHIGAN

STATION/POSITION TIME  TEMP WIND        PRES
                       AIR  DIR/SP/G
                 (UTC) (F)  (DEG/KT/KT) (MB)
MICHIGAN CITY    1200   41  350/ 12/ 14   N/A

$$

INZ004-005-014>016-021>024-221400-
NORTH CENTRAL INDIANA

CITY           SKY/WX    TMP DP  RH WIND       PRES   REMARKS
ELKHART        SUNNY     41  32  70 NW9       29.88
GOSHEN         SUNNY     45  35  68 NW18G24   29.87R
SOUTH BEND     SUNNY     45  32  60 N23G29    29.91R

$$

INZ006>009-017-018-025>027-221400-
NORTHEAST INDIANA

CITY           SKY/WX    TMP DP  RH WIND       PRES   REMARKS
ANGOLA *+      CLOUDY    46  45  93 NW15      29.81R
FORT WAYNE     CLOUDY    50  44  80 NW17G26   29.83R

$$

INZ028-029-035-036-043>045-051>053-221400-
WEST CENTRAL INDIANA

CITY           SKY/WX    TMP DP  RH WIND       PRES   REMARKS
GREENCASTLE +  SUNNY     50  37  62 N22G30    29.91R
LAFAYETTE      SUNNY     45  34  65 N18G31    29.93R
TERRE HAUTE    SUNNY     53  42  66 N15G25    29.92R

$$

INZ030>032-037>040-046>048-054>057-064-065-221400-
CENTRAL INDIANA

CITY           SKY/WX    TMP DP  RH WIND       PRES   REMARKS
ANDERSON       SUNNY     50  39  66 NW17G23   29.87R
COLUMBUS       CLOUDY    59  57  94 NW10      29.85R FOG
INDIANAPOLIS   MOSUNNY   50  39  66 N18G26    29.89R
-EAGLE CREEK   SUNNY     50  39  66 NW14G23   29.89R
KOKOMO *+      SUNNY     46  36  66 N17       29.88S
MT COMFORT *+  SUNNY     52  43  71 N16       29.88R
SHELBYVILLE    CLOUDY    57  49  74 N20G29    29.85R

$$

INZ033-034-041-042-049-050-058-059-221400-
EAST CENTRAL INDIANA

CITY           SKY/WX    TMP DP  RH WIND       PRES   REMARKS
MUNCIE         MOSUNNY   50  43  77 NW18G25   29.84R

$$

INZ060-061-067>069-081>083-085>088-221400-
SOUTHWEST INDIANA

CITY           SKY/WX    TMP DP  RH WIND       PRES   REMARKS
EVANSVILLE     MOSUNNY   62  56  80 NW9       29.89R
HUNTINGBURG *+ SUNNY     63  55  77 N10       29.88R

$$

INZ062-063-066-070>080-084-089>092-221400-
SOUTH CENTRAL AND SOUTHEAST INDIANA

CITY           SKY/WX    TMP DP  RH WIND       PRES   REMARKS
BLOOMINGTON    CLOUDY    59  54  83 N10       29.86R

$$




USA.gov is the U.S. government's official web portal to all federal, state and local government web resources and services.